Flag for Switzerland Weather past 2 weeks in Kriens, Lucerne, Switzerland

Now
63 °F

Mild.


Feels Like: 63 °F
Forecast: 44 / 69 °F
Wind: 3 mph from South

Location: Giswil

Current Time: May 24, 2015 at 5:41:58 PM

Latest Report: May 24, 2015 at 5:00 PM


Visibility: N/A

Pressure: 30.00 "Hg

Humidity: 62%

Dew point: 50 °F

Location of KriensLocation

Historic Weather in Kriens — Graph

°F

Kriens temperature yesterday

Maximum temperature yesterday: 58 °F (at 5:00 PM)
Minimum temperature yesterday: 46 °F (at 7:00 AM)
Average temperature yesterday: 52 °F

Past Weeks' High & Low Weather Summary

 TemperatureHumidityPressure
High80 °F (May 12, 3:00 PM)100% (May 22, 6:00 AM)30.41 "Hg (May 22, 6:00 AM)
Low40 °F (May 15, 2:00 PM)33% (May 12, 2:00 PM)29.73 "Hg (May 18, 7:00 PM)
Average56 °F77%30.11 "Hg
* Reported May 9 4:00 PM — May 24 4:00 PM, Kriens, Weather by CustomWeather, © 2015

Note: Actual official high and low records may vary slightly from our data, if they occured in-between our weather recording intervals... More about our weather records

Advertising

Kriens weather history for previous 24 hours

 ConditionsComfort  
Time TempWeatherWind HumidityBarometerVisibility
4:00 PM
Sun, May 24
64 °FMild.2 mph55%30.00 "HgN/A
3:00 PM64 °FMild.3 mph54%30.00 "HgN/A
2:00 PM64 °FMild.3 mph55%30.01 "HgN/A
1:00 PM64 °FMild.6 mph54%30.02 "HgN/A
12:00 PM62 °FCool.3 mph61%30.02 "HgN/A
11:00 AM59 °FCool.5 mph65%30.04 "HgN/A
10:00 AM56 °FCool.1 mph69%30.06 "HgN/A
9:00 AM53 °FCool.1 mph77%30.07 "HgN/A
8:00 AM51 °FCool.No wind82%30.06 "HgN/A
7:00 AM48 °FCool.1 mph93%30.08 "HgN/A
6:00 AM45 °FCool.2 mph96%30.07 "HgN/A
4:00 AM48 °FCool.2 mph94%30.06 "HgN/A
3:00 AM49 °FCool.1 mph89%30.07 "HgN/A
2:00 AM49 °FCool.1 mph93%30.10 "HgN/A
1:00 AM48 °FCool.No wind92%30.10 "HgN/A
12:00 AM49 °FCool.1 mph90%30.10 "HgN/A
10:00 PM
Sat, May 23
52 °FCool.5 mph70%30.08 "HgN/A
9:00 PM55 °FCool.5 mph67%30.06 "HgN/A
8:00 PM57 °FCool.1 mph72%30.05 "HgN/A
7:00 PM58 °FCool.No wind64%30.04 "HgN/A
6:00 PM58 °FCool.3 mph61%30.05 "HgN/A
5:00 PM58 °FRefreshingly cool.3 mph59%30.05 "HgN/A
Weather by CustomWeather, © 2015

See weather overviewHow to use our weather pages